This is the latest recevied weather packets stored in our database for station/object W0AKY-13. If no packets are shown the sender has not sent any weather packets the latest 10 day(s).
| Time | Temp. | Humidity | Pressure | Rain* | Wind** | Luminosity | Snow |
|---|---|---|---|---|---|---|---|
| 1777617173 | 2.78° C | 92% | 1020.3 hPa | 0 mm | - | 0 W/m² | - |
| 1777616869 | 2.78° C | 92% | 1020.6 hPa | 0 mm | - | 0 W/m² | - |
| 1777616565 | 2.78° C | 92% | 1020.7 hPa | 0 mm | - | 0 W/m² | - |
| 1777616260 | 2.22° C | 91% | 1020.6 hPa | 0 mm | - | 0 W/m² | - |
| 1777615958 | 2.78° C | 91% | 1020.7 hPa | 0 mm | - | 0 W/m² | - |
| 1777615654 | 2.78° C | 91% | 1020.7 hPa | 0 mm | - | 0 W/m² | - |
| 1777615351 | 2.78° C | 91% | 1020.7 hPa | 0 mm | - | 0 W/m² | - |
| 1777615050 | 2.78° C | 91% | 1020.8 hPa | 0 mm | - | 0 W/m² | - |
| 1777614747 | 2.78° C | 90% | 1021 hPa | 0 mm | - | 0 W/m² | - |
| 1777614446 | 2.78° C | 90% | 1020.9 hPa | 0 mm | - | 0 W/m² | - |
| 1777614144 | 2.78° C | 90% | 1020.9 hPa | 0 mm | - | 0 W/m² | - |
| 1777613843 | 2.78° C | 90% | 1020.8 hPa | 0 mm | - | 0 W/m² | - |
| 1777613542 | 3.33° C | 90% | 1020.9 hPa | 0 mm | - | 0 W/m² | - |
| 1777613238 | 2.78° C | 90% | 1020.8 hPa | 0 mm | - | 0 W/m² | - |
| 1777612935 | 2.78° C | 89% | 1021 hPa | 0 mm | - | 0 W/m² | - |
| 1777612630 | 2.78° C | 89% | 1020.9 hPa | 0 mm | - | 0 W/m² | - |
| 1777612327 | 2.78° C | 89% | 1021.2 hPa | 0 mm | - | 0 W/m² | - |
| 1777612021 | 3.33° C | 89% | 1020.7 hPa | 0 mm | - | 0 W/m² | - |
| 1777611717 | 3.33° C | 88% | 1021.2 hPa | 0 mm | - | 0 W/m² | - |
| 1777611413 | 3.33° C | 87% | 1021 hPa | 0 mm | - | 0 W/m² | - |
| 1777611111 | 3.33° C | 87% | 1021.1 hPa | 0 mm | - | 0 W/m² | - |
| 1777610806 | 3.89° C | 87% | 1021.1 hPa | 0 mm | - | 0 W/m² | - |
| 1777610505 | 3.89° C | 87% | 1021.1 hPa | 0 mm | - | 0 W/m² | - |
| 1777610201 | 3.89° C | 86% | 1021 hPa | 0 mm | - | 0 W/m² | - |
| 1777609898 | 3.89° C | 86% | 1021 hPa | 0 mm | - | 0 W/m² | - |
* Rain latest hour (hover to see other rain measurements)
** Current wind speed in m/s (hover to see current wind gust speed)